Location: Molino di Ancona
(43.6167°N, 13.3667°E)
Time: 14:14:15
(UTC+00:00)

SMAP - Pass Details

Date: 15 December 2019
Orbit: 681 x 684 km, 98.1° (Epoch: 20 January)

Event Time Altitude Azimuth Distance (km) Brightness Sun altitude
Rises 05:54:25 0° 8° (N) 3,055 6.2 -6.9°
Reaches altitude 10° 05:56:42 10° 3° (N) 2,135 5.4 -6.5°
Maximum altitude 06:01:14 52° 288° (WNW) 848 3.2 -5.8°
Drops below altitude 10° 06:05:43 10° 213° (SSW) 2,118 5.6 -5.1°
Sets 06:07:59 0° 208° (SSW) 3,028 6.4 -4.7°
